{"data":{"norad_id":65676,"intl_designator":"2025-212A","name":"STARLINK-35189","alt_names":[],"object_type":"PAYLOAD","status":"ACTIVE","operator":null,"country":"US","launch_date":"2025-09-21","launch_site_code":"AFETR","launch_vehicle":null,"mission":null,"orbit_class":"UNKNOWN","rcs_meters":null,"size_class":null,"mass_kg":null,"dimensions":null,"purposes":["comms"],"wikipedia_slug":null,"has_3d_model":false,"image_url":null,"decayed_at":null,"tle_current":{"epoch":"2026-05-24T22:57:20.212416Z","epoch_age_seconds":89394,"freshness":"FRESH","line1":"1 65676U 25212A   26144.95648394  .00012688  00000+0  43968-3 0  9994","line2":"2 65676  53.1605 351.1913 0001045  92.7797 267.3323 15.30207406 38876","mean_motion":15.30207406,"eccentricity":0.0001045,"inclination_deg":53.1605,"raan_deg":351.1913,"arg_perigee_deg":92.7797,"mean_anomaly_deg":267.3323,"bstar":0.00043968,"rev_number":3887,"period_min":94.104890249107,"perigee_km":474.47678354699,"apogee_km":475.90912950791,"semimajor_km":6853.3299565275,"source":"CELESTRAK","updated_at":"2026-05-25T13:38:20.893299Z"}}}